sat.trackr.live / text

‹ back to catalog

STARLINK-36507

NORAD 67409 · 2026-005F

PAYLOAD ACTIVE UNKNOWN

§ Identity

Operator
Country
US
Launch date
2026-01-12
Launch site
AFETR
Launch vehicle
Mass (kg)
RCS (m²)

Purposes: comms

External: N2YO · Heavens-Above · Gunter

§ Orbital elements

Epoch: 2026-09-19T07:09:24.492960Z

Period
94.27 min
Inclination
43.0014°
Eccentricity
0.0001446
Mean motion
15.27579339 rev/d
Perigee alt
482.1 km
Apogee alt
484.0 km
Semi-major
6,861.2 km
B*
2.4589e-4
RAAN
224.8249°
Arg perigee
268.4712°
Mean anomaly
91.5974°
Rev number
3,830

§ Raw data

STARLINK-365071 67409U 26005F   26262.29820015  .00006510  00000+0  24589-3 0  99962 67409  43.0014 224.8249 0001446 268.4712  91.5974 15.27579339 38306

JSON: /api/v1/satellites/67409 · /tle

For live sub-satellite position, see the globe view (requires WebGL).

§ Visibility from observer

Set your observer location to see the next 7 days of passes ≥ 10°. The values pass through the URL so the page stays shareable.

No JS? Fill the form by hand. The geolocation button needs JavaScript.